Tracking 28790 objects as of 18-Apr-2024
HD Live streaming from Space Station
objects crossing your sky now

CRRES DEB (CANISTER)

Track CRRES DEB (CANISTER) now!


NORAD ID: 21590
Int'l Code: 1990-065F
Perigee: 348.7 km
Apogee: 30,870.8 km
Inclination: 20.5 °
Period: 540.5 minutes
Semi major axis: 21980 km
RCS: 0.1267 m2 (medium)
Launch date: July 25, 1990
Source: United States (US)
Launch site: AIR FORCE EASTERN TEST RANGE (AFETR)

Note: This is SATELLITE DEBRIS
Your satellite tracking list
Your tracking list is empty




NASA's NSSDC Master Catalog

Two Line Element Set (TLE):
1 21590U 90065F   24107.16954853  .00000873  00000-0  13223-2 0  9993
2 21590  20.4980 344.4887 6942928 347.6321   1.7256  2.66402897108448
Source of the keplerian elements: AFSPC